Weather History for Indianapolis, IN

Change the Weather History Date:

Saturday, January 26, 2013

  Actual Average Record
Temperature  
Mean Temperature 22 °F 28 °F  
Max Temperature 31 °F 36 °F 67 °F (1944)
Min Temperature 13 °F 20 °F -12 °F (1897)
Degree Days  
Heating Degree Days 43 37  
Month to date heating degree days 957 962  
Since 1 July heating degree days 2938 3038  
Cooling Degree Days 0 0  
Month to date cooling degree days 0 0  
Year to date cooling degree days 0 0  
Moisture  
Dew Point 15 °F    
Average Humidity 77    
Maximum Humidity 100    
Minimum Humidity 53    
Precipitation  
Precipitation 0.00 in 0.08 in 1.41 in (1954)
Month to date precipitation 3.95 2.26  
Year to date precipitation 3.95 2.26  
Snow  
Snow 0.00 in 0.30 in 10.30 in (1978)
Month to date snowfall 1.5 7.2  
Since 1 July snowfall 16.5 15.2  
Snow Depth 1.00 in    
Sea Level Pressure  
Sea Level Pressure 30.33 in    
Wind  
Wind Speed 6 mph (NW)    
Max Wind Speed 12 mph    
Max Gust Speed 14 mph    
Visibility 10 miles    
Events      
T = Trace of Precipitation, MM = Missing Value Source: NWS Daily Summary

Daily Weather History Graph

Daily Weather History Graph

Search for Another Location

Airport:

Trip Planner

Search our weather history database for the weather conditions in past years. The results will help you decide how hot, cold, wet, or windy it might be!

Date:

Astronomy

Jan. 26, 2013 Rise Set
Actual Time 7:57 AM EST 5:58 PM EST
Civil Twilight 7:29 AM EST 6:27 PM EST
Nautical Twilight 6:56 AM EST 6:59 PM EST
Astronomical Twilight 6:24 AM EST 7:31 PM EST
Moon 5:52 PM EST (1/26) 7:15 AM EST (1/26)
Length of Visible Light 10h 58m
Length of Day
10h 00m
Full, 100% of the Moon is Illuminated
Jan 26
Full
Jan 26
Full
Feb 3
Last Quarter
Feb 10
New
Feb 17
First Quarter

Hourly Weather History & Observations

Time (EST) Temp. Windchill Dew Point Humidity Pressure Visibility Wind Dir Wind Speed Gust Speed Precip Events Conditions
12:54 AM 19.0 °F 10.0 °F 15.1 °F 85% 30.16 in 10.0 mi West 6.9 mph - N/A   Partly Cloudy
1:54 AM 17.1 °F 8.7 °F 14.0 °F 88% 30.18 in 10.0 mi West 5.8 mph - N/A   Partly Cloudy
2:54 AM 18.0 °F 9.8 °F 15.1 °F 88% 30.19 in 10.0 mi West 5.8 mph - N/A   Partly Cloudy
3:54 AM 16.0 °F 7.4 °F 14.0 °F 92% 30.20 in 8.0 mi WSW 5.8 mph - N/A   Scattered Clouds
4:54 AM 12.9 °F 3.8 °F 12.0 °F 96% 30.21 in 8.0 mi West 5.8 mph - N/A   Mostly Cloudy
5:54 AM 16.0 °F 8.8 °F 12.9 °F 88% 30.24 in 10.0 mi NW 4.6 mph - N/A   Overcast
6:54 AM 15.1 °F 6.4 °F 12.0 °F 88% 30.27 in 10.0 mi NW 5.8 mph - N/A   Mostly Cloudy
7:54 AM 14.0 °F 3.9 °F 10.9 °F 88% 30.31 in 8.0 mi West 6.9 mph - N/A   Mostly Cloudy
8:54 AM 17.1 °F 8.7 °F 14.0 °F 88% 30.34 in 8.0 mi WNW 5.8 mph - N/A   Mostly Cloudy
9:54 AM 21.0 °F 9.9 °F 14.0 °F 74% 30.35 in 10.0 mi NNW 10.4 mph - N/A   Scattered Clouds
10:54 AM 25.0 °F 16.3 °F 15.1 °F 66% 30.38 in 10.0 mi NW 8.1 mph - N/A   Scattered Clouds
11:54 AM 27.0 °F 21.6 °F 16.0 °F 63% 30.38 in 10.0 mi North 4.6 mph - N/A   Partly Cloudy
12:54 PM 28.9 °F 25.2 °F 16.0 °F 58% 30.37 in 10.0 mi Variable 3.5 mph - N/A   Scattered Clouds
1:54 PM 30.0 °F - 17.1 °F 59% 30.36 in 10.0 mi Calm Calm - N/A   Partly Cloudy
2:54 PM 30.9 °F - 18.0 °F 59% 30.36 in 10.0 mi Calm Calm - N/A   Partly Cloudy
3:54 PM 30.0 °F 24.1 °F 17.1 °F 59% 30.38 in 10.0 mi West 5.8 mph - N/A   Partly Cloudy
4:54 PM 30.0 °F 26.5 °F 16.0 °F 56% 30.39 in 10.0 mi WNW 3.5 mph - N/A   Partly Cloudy
5:54 PM 27.0 °F 21.6 °F 17.1 °F 66% 30.38 in 10.0 mi NNW 4.6 mph - N/A   Partly Cloudy
6:54 PM 25.0 °F 18.1 °F 16.0 °F 69% 30.40 in 10.0 mi North 5.8 mph - N/A   Partly Cloudy
7:54 PM 25.0 °F 19.3 °F 17.1 °F 72% 30.42 in 10.0 mi East 4.6 mph - N/A   Clear
8:54 PM 24.1 °F 15.2 °F 16.0 °F 71% 30.42 in 10.0 mi ENE 8.1 mph - N/A   Clear
9:54 PM 23.0 °F 17.0 °F 16.0 °F 74% 30.44 in 8.0 mi East 4.6 mph - N/A   Clear
10:54 PM 19.9 °F 11.1 °F 15.1 °F 81% 30.43 in 10.0 mi ESE 6.9 mph - N/A   Partly Cloudy
11:54 PM 21.0 °F 11.4 °F 15.1 °F 78% 30.42 in 10.0 mi East 8.1 mph - N/A   Partly Cloudy